This is the latest recevied weather packets stored in our database for station/object WB9ZLM. If no packets are shown the sender has not sent any weather packets the latest 10 day(s).
| Time | Temp. | Humidity | Pressure | Rain* | Wind** | Luminosity | Snow |
|---|---|---|---|---|---|---|---|
| 1777440660 | 13.33° C | 78% | 1016.6 hPa | 0 mm | - | - | - |
| 1777439822 | 13.33° C | 78% | 1016.7 hPa | 0 mm | - | - | - |
| 1777439761 | 13.33° C | 78% | 1016.7 hPa | 0 mm | - | - | - |
| 1777438922 | 13.33° C | 80% | 1016.8 hPa | 0 mm | - | - | - |
| 1777438860 | 13.33° C | 80% | 1016.8 hPa | 0 mm | - | - | - |
| 1777438022 | 13.33° C | 77% | 1016.8 hPa | 0 mm | - | - | - |
| 1777437960 | 13.33° C | 77% | 1016.8 hPa | 0 mm | - | - | - |
| 1777437122 | 13.33° C | 73% | 1016.6 hPa | 0 mm | - | - | - |
| 1777437061 | 13.33° C | 73% | 1016.6 hPa | 0 mm | - | - | - |
| 1777436222 | 13.89° C | 73% | 1016.5 hPa | 0 mm | - | - | - |
| 1777436160 | 13.89° C | 73% | 1016.5 hPa | 0 mm | - | - | - |
| 1777435321 | 13.89° C | 72% | 1016.1 hPa | 0 mm | - | - | - |
| 1777435261 | 13.89° C | 72% | 1016.1 hPa | 0 mm | - | - | - |
| 1777434421 | 13.89° C | 73% | 1016.4 hPa | 0 mm | - | - | - |
| 1777434360 | 13.89° C | 73% | 1016.4 hPa | 0 mm | - | - | - |
| 1777433521 | 13.89° C | 72% | 1016.4 hPa | 0 mm | - | - | - |
| 1777433461 | 13.89° C | 72% | 1016.4 hPa | 0 mm | - | - | - |
| 1777432622 | 13.89° C | 72% | 1016.1 hPa | 0 mm | - | - | - |
| 1777432560 | 13.89° C | 72% | 1016.1 hPa | 0 mm | - | - | - |
| 1777431722 | 14.44° C | 73% | 1016.6 hPa | 0 mm | - | - | - |
| 1777431660 | 14.44° C | 73% | 1016.6 hPa | 0 mm | - | - | - |
| 1777430822 | 14.44° C | 71% | 1016.7 hPa | 0 mm | - | - | - |
| 1777430760 | 14.44° C | 71% | 1016.7 hPa | 0 mm | - | - | - |
| 1777429921 | 14.44° C | 68% | 1016.5 hPa | 0 mm | - | - | - |
| 1777429861 | 14.44° C | 68% | 1016.5 hPa | 0 mm | - | - | - |
* Rain latest hour (hover to see other rain measurements)
** Current wind speed in m/s (hover to see current wind gust speed)